STARLINK-5510 (55647 NORAD) Tracking and Keplerian Element Data

This shows tracking and keplerian element data for the satellite.

Feedback or suggestion? Click here.




ElementValue
Catalog55647
NameSTARLINK-5510
Epoch Orbit130
Epoch Day62.91667824
Epoch Year2023
RAAN110.1922
Inclination69.9996
Eccentricity0.0003514
Argument of Perigee278.728
Mean Anonmoly322.7054
Mean Motion15.75113501
Decay Rate-0.01037016
L11 55647U 23021V 23062.91667824 -.01037016 00000+0 -76664-2 0 9991
L22 55647 69.9996 110.1922 0003514 278.7280 322.7054 15.75113501 1306



Live tracking and technical data element details for STARLINK-5510 (NORAD 55647). STARLINK-5510 can be tracked NOW for your location showing map with azimuth and elevation plus other details from your city location.







IsCatalogInMostPopularTable: catalog: 55647, numindb: 2
Update: records affected: 1



GetName: 55647 STARLINK-5510

Hit Count: updated at: Wed, 22 Mar 2023 16:52:47 GMT